Location: Apple Hill Campground
(44.2915°N, 71.6726°W)
Time: 04:56:33
(UTC+00:00)

ARIANE 6 FM1 Upper Stage - Visible Passes

Search period start: 14 October 2024 00:00
Search period end: 24 October 2024 00:00
Orbit: 563 x 595 km, 62.0° (Epoch: 13 October)

Date Brightness Start Highest point End Pass type
(mag) Time Alt. Az. Time Alt. Az. Time Alt. Az.
14 Oct 5.1 00:52:36 10° NNW 00:53:56 18° NNW 00:53:56 18° NNW visible
14 Oct 4.9 23:18:41 10° N 23:20:43 13° NNE 23:21:52 12° NE visible
15 Oct 5.1 00:56:46 10° NNW 00:58:09 19° NNW 00:58:09 19° NNW visible
15 Oct 4.6 23:22:33 10° N 23:25:20 16° NNE 23:26:07 16° NE visible
16 Oct 5.1 01:00:59 10° NW 01:02:24 20° NW 01:02:24 20° NW visible
16 Oct 4.2 23:26:31 10° NNW 23:29:53 21° NE 23:30:24 21° NE visible
17 Oct 5.2 01:05:17 10° NW 01:06:42 20° NW 01:06:42 20° NW visible
17 Oct 3.8 23:30:33 10° NNW 23:34:22 28° NE 23:34:45 28° NE visible
18 Oct 5.3 01:09:40 10° NW 01:11:03 19° WNW 01:11:03 19° WNW visible
18 Oct 3.3 23:34:38 10° NNW 23:38:46 40° NE 23:39:11 39° ENE visible
19 Oct 5.5 01:14:13 10° WNW 01:15:29 17° WNW 01:15:29 17° WNW visible
19 Oct 2.8 23:38:46 10° NNW 23:43:05 60° NE 23:43:42 53° E visible
20 Oct 5.7 01:19:03 10° WNW 01:20:01 14° W 01:20:01 14° W visible
20 Oct 2.7 23:42:58 10° NW 23:47:20 89° WSW 23:48:21 53° SE visible
21 Oct 3.3 23:47:15 10° NW 23:51:32 57° SW 23:53:10 34° S visible
22 Oct 3.6 22:12:21 10° NNW 22:16:18 33° NE 22:20:16 10° ESE visible
22 Oct 4.2 23:51:39 10° NW 23:55:39 36° WSW 23:58:12 19° S visible
23 Oct 3.1 22:16:24 10° NNW 22:20:37 47° NE 22:24:50 10° ESE visible
